Location: Bégole
(43.1574°N, 0.3291°E)
Time: 02:30:01
(UTC+00:00)

Spot 1 - Pass Details

Date: 28 January 2023
Orbit: 575 x 772 km, 98.8° (Epoch: 27 March)

Event Time Altitude Azimuth Distance (km) Brightness Sun altitude
Exits shadow 18:43:50 40° 79° (E) 871 4.3 -18.0°
Maximum altitude 18:44:20 42° 99° (E) 840 4.3 -18.1°
Drops below altitude 10° 18:48:10 10° 171° (S) 1,879 6.5 -18.8°
Sets 18:50:23 0° 179° (S) 2,771 7.5 -19.2°
